Location: Muenchen
(48.1800°N, 11.5800°E)
Time: 05:24:57
(UTC+01:00)

ISS - Visible Passes

Search period start: 23 December 2014 00:00
Search period end: 02 January 2015 00:00
Orbit: 404 x 414 km, 51.6° (Epoch: 22 December)

Date Brightness Start Highest point End Pass type
(mag) Time Alt. Az. Time Alt. Az. Time Alt. Az.
23 Dec -3.4 17:37:05 10° WNW 17:40:23 74° NNE 17:42:48 17° ESE visible
23 Dec -0.7 19:13:58 10° W 19:15:34 20° WSW 19:15:34 20° WSW visible
24 Dec -2.1 18:22:53 10° WNW 18:26:00 40° SSW 18:27:19 26° SSE visible
25 Dec -2.9 17:31:53 10° WNW 17:35:09 64° SSW 17:38:24 10° SE visible
25 Dec -0.3 19:09:47 10° WSW 19:11:11 12° SW 19:12:04 11° SSW visible
26 Dec -0.7 18:17:58 10° W 18:20:27 20° SW 18:22:55 10° S visible
27 Dec -1.4 17:26:39 10° W 17:29:37 32° SW 17:32:34 10° SSE visible
29 Dec -0.1 17:21:42 10° W 17:23:46 16° SW 17:25:50 10° S visible
